This is the latest recevied weather packets stored in our database for station/object OH7GGX-14. If no packets are shown the sender has not sent any weather packets the latest 10 day(s).
| Time | Temp. | Humidity | Pressure | Rain* | Wind** | Luminosity | Snow |
|---|---|---|---|---|---|---|---|
| 1787726824 | 12.78° C | 99% | 1023.8 hPa | 0 mm | - | - | - |
| 1787726224 | 12.78° C | 99% | 1023.7 hPa | 0 mm | - | - | - |
| 1787725624 | 12.22° C | 99% | 1023.8 hPa | 0 mm | - | - | - |
| 1787725024 | 11.67° C | 99% | 1023.7 hPa | 0 mm | - | - | - |
| 1787724424 | 11.67° C | 99% | 1023.7 hPa | 0 mm | - | - | - |
| 1787723824 | 11.11° C | 99% | 1023.6 hPa | 0 mm | - | - | - |
| 1787723224 | 10.56° C | 99% | 1023.6 hPa | 0 mm | - | - | - |
| 1787722624 | 10° C | 99% | 1023.6 hPa | 0 mm | - | - | - |
| 1787722024 | 9.44° C | 99% | 1023.5 hPa | 0 mm | - | - | - |
| 1787721424 | 9.44° C | 99% | 1023.5 hPa | 0 mm | - | - | - |
| 1787720824 | 8.89° C | 99% | 1023.7 hPa | 0 mm | - | - | - |
| 1787720224 | 8.33° C | 99% | 1023.7 hPa | 0 mm | - | - | - |
| 1787719624 | 8.33° C | 99% | 1023.6 hPa | 0 mm | - | - | - |
| 1787719024 | 7.78° C | 99% | 1023.5 hPa | 0 mm | - | - | - |
| 1787718424 | 7.78° C | 99% | 1023.5 hPa | 0 mm | - | - | - |
| 1787717824 | 7.22° C | 99% | 1023.5 hPa | 0 mm | - | - | - |
| 1787717224 | 7.22° C | 99% | 1023.5 hPa | 0 mm | - | - | - |
| 1787716624 | 6.67° C | 99% | 1023.4 hPa | 0 mm | - | - | - |
| 1787716024 | 6.67° C | 99% | 1023.4 hPa | 0 mm | - | - | - |
| 1787715424 | 6.11° C | 99% | 1023.4 hPa | 0 mm | - | - | - |
| 1787714824 | 6.11° C | 99% | 1023.4 hPa | 0 mm | - | - | - |
| 1787714224 | 6.11° C | 99% | 1023.4 hPa | 0 mm | - | - | - |
| 1787713624 | 5.56° C | 99% | 1023.2 hPa | 0 mm | - | - | - |
| 1787713024 | 5.56° C | 99% | 1023.1 hPa | 0 mm | - | - | - |
| 1787712424 | 5.56° C | 99% | 1023.1 hPa | 0 mm | - | - | - |
* Rain latest hour (hover to see other rain measurements)
** Current wind speed in m/s (hover to see current wind gust speed)